Hourly Weather Russkaya Mosara

Today, 18 April, Sunday

Time Temperature Precipitation Wind Pressure Humidity
00:00 +3°C° 0 mm 2 mps 756 mmHg 81%
01:00 +3°C° 0 mm 2 mps 756 mmHg 82%
02:00 +2°C° 0 mm 2 mps 755 mmHg 83%
03:00 +2°C° 0 mm 2 mps 755 mmHg 81%
04:00 +3°C° 0 mm 2 mps 755 mmHg 81%
05:00 +3°C° 0 mm 2 mps 755 mmHg 80%
06:00 +3°C° 0 mm 2 mps 755 mmHg 80%
07:00 +5°C° 0 mm 2 mps 755 mmHg 74%
08:00 +7°C° 0 mm 3 mps 755 mmHg 68%
09:00 +8°C° 0 mm 3 mps 755 mmHg 61%
10:00 +8°C° 0 mm 4 mps 755 mmHg 60%
11:00 +8°C° 0 mm 5 mps 756 mmHg 59%
12:00 +9°C° 0 mm 6 mps 756 mmHg 58%
13:00 +8°C° 0 mm 6 mps 756 mmHg 59%
14:00 +7°C° 0 mm 6 mps 757 mmHg 61%
15:00 +5°C° 0 mm 6 mps 757 mmHg 62%
16:00 +5°C° 0 mm 6 mps 757 mmHg 59%
17:00 +4°C° 0 mm 6 mps 757 mmHg 56%
18:00 +3°C° 0 mm 6 mps 758 mmHg 53%
19:00 +2°C° 0 mm 5 mps 758 mmHg 57%
20:00 +1°C° 0 mm 5 mps 758 mmHg 61%
21:00 0°C° 0 mm 5 mps 759 mmHg 65%
22:00 -1°C° 0 mm 5 mps 759 mmHg 66%
23:00 -1°C° 0 mm 5 mps 759 mmHg 68%

Tomorrow, 19 April, Monday

Time Temperature Precipitation Wind Pressure Humidity
00:00 -2°C° 0 mm 5 mps 759 mmHg 70%
01:00 -2°C° 0 mm 5 mps 760 mmHg 68%
02:00 -2°C° 0 mm 5 mps 760 mmHg 67%
03:00 -2°C° 0 mm 5 mps 760 mmHg 65%
04:00 -3°C° 0 mm 6 mps 761 mmHg 62%
05:00 -3°C° 0 mm 6 mps 761 mmHg 60%
06:00 -3°C° 0 mm 6 mps 761 mmHg 58%
07:00 -2°C° 0 mm 6 mps 761 mmHg 50%
08:00 -1°C° 0 mm 7 mps 761 mmHg 42%
09:00 0°C° 0 mm 8 mps 761 mmHg 34%
10:00 +2°C° 0 mm 7 mps 761 mmHg 32%
11:00 +3°C° 0 mm 7 mps 761 mmHg 31%
12:00 +4°C° 0 mm 7 mps 761 mmHg 29%
13:00 +4°C° 0 mm 7 mps 761 mmHg 29%
14:00 +4°C° 0 mm 7 mps 761 mmHg 29%
15:00 +5°C° 0 mm 7 mps 761 mmHg 29%
16:00 +4°C° 0 mm 6 mps 761 mmHg 32%
17:00 +3°C° 0 mm 6 mps 761 mmHg 36%
18:00 +2°C° 0 mm 5 mps 761 mmHg 40%
19:00 +1°C° 0 mm 4 mps 761 mmHg 45%
20:00 0°C° 0 mm 4 mps 762 mmHg 51%
21:00 -1°C° 0 mm 4 mps 762 mmHg 56%
22:00 -2°C° 0 mm 4 mps 762 mmHg 56%
23:00 -2°C° 0 mm 4 mps 762 mmHg 57%

Day after tomorrow, 20 April, Tuesday

Time Temperature Precipitation Wind Pressure Humidity
00:00 -3°C° 0 mm 4 mps 762 mmHg 58%
01:00 -2°C° 0 mm 3 mps 763 mmHg 57%
02:00 -2°C° 0 mm 3 mps 763 mmHg 57%
03:00 -2°C° 0 mm 3 mps 763 mmHg 57%
04:00 -2°C° 0 mm 3 mps 763 mmHg 55%
05:00 -2°C° 0 mm 4 mps 763 mmHg 53%
06:00 -2°C° 0 mm 4 mps 763 mmHg 50%
07:00 0°C° 0 mm 4 mps 763 mmHg 45%
08:00 +3°C° 0 mm 4 mps 763 mmHg 40%
09:00 +4°C° 0 mm 4 mps 763 mmHg 35%
10:00 +5°C° 0 mm 4 mps 763 mmHg 33%
11:00 +6°C° 0 mm 4 mps 763 mmHg 32%
12:00 +7°C° 0 mm 4 mps 763 mmHg 30%
13:00 +7°C° 0 mm 4 mps 762 mmHg 30%
14:00 +8°C° 0 mm 4 mps 762 mmHg 30%
15:00 +8°C° 0 mm 4 mps 762 mmHg 30%
16:00 +7°C° 0 mm 4 mps 761 mmHg 35%
17:00 +7°C° 0 mm 3 mps 761 mmHg 40%
18:00 +5°C° 0 mm 3 mps 761 mmHg 45%
19:00 +4°C° 0 mm 3 mps 761 mmHg 48%
20:00 +3°C° 0 mm 3 mps 761 mmHg 51%
21:00 +2°C° 0 mm 3 mps 761 mmHg 54%
22:00 +1°C° 0 mm 3 mps 761 mmHg 55%
23:00 +1°C° 0 mm 3 mps 760 mmHg 57%

21 April, Wednesday

Time Temperature Precipitation Wind Pressure Humidity
00:00 0°C° 0 mm 3 mps 760 mmHg 58%
01:00 0°C° 0 mm 3 mps 760 mmHg 59%
02:00 0°C° 0 mm 3 mps 760 mmHg 60%
03:00 -1°C° 0 mm 3 mps 760 mmHg 60%
04:00 -1°C° 0 mm 4 mps 760 mmHg 58%
05:00 0°C° 0 mm 4 mps 760 mmHg 56%
06:00 0°C° 0 mm 5 mps 760 mmHg 53%
07:00 +2°C° 0 mm 6 mps 759 mmHg 48%
08:00 +4°C° 0 mm 7 mps 759 mmHg 42%
09:00 +5°C° 0 mm 7 mps 759 mmHg 37%
10:00 +6°C° 0 mm 8 mps 759 mmHg 35%
11:00 +7°C° 0 mm 8 mps 758 mmHg 34%
12:00 +9°C° 0 mm 8 mps 758 mmHg 32%
13:00 +9°C° 0 mm 8 mps 757 mmHg 33%
14:00 +9°C° 0 mm 8 mps 757 mmHg 34%
15:00 +9°C° 0 mm 7 mps 757 mmHg 36%
16:00 +8°C° 0 mm 7 mps 757 mmHg 38%
17:00 +8°C° 0 mm 7 mps 756 mmHg 40%
18:00 +7°C° 0 mm 6 mps 756 mmHg 42%
19:00 +7°C° 0 mm 6 mps 756 mmHg 44%
20:00 +5°C° 0 mm 6 mps 756 mmHg 46%
21:00 +5°C° 0 mm 6 mps 756 mmHg 49%
22:00 +4°C° 0.1 mm 6 mps 756 mmHg 61%
23:00 +3°C° 0.1 mm 6 mps 756 mmHg 72%

22 April, Thursday

Time Temperature Precipitation Wind Pressure Humidity
00:00 +2°C° 0.1 mm 7 mps 756 mmHg 84%
01:00 +2°C° 0.3 mm 7 mps 756 mmHg 88%
02:00 +2°C° 0.3 mm 7 mps 756 mmHg 92%
03:00 +1°C° 0.3 mm 6 mps 756 mmHg 96%
04:00 +1°C° 0 mm 6 mps 756 mmHg 96%
05:00 +2°C° 0 mm 6 mps 756 mmHg 96%
06:00 +2°C° 0 mm 6 mps 757 mmHg 96%
07:00 +2°C° 0 mm 6 mps 757 mmHg 95%
08:00 +2°C° 0 mm 5 mps 757 mmHg 93%
09:00 +2°C° 0 mm 5 mps 757 mmHg 92%
10:00 +3°C° 0 mm 5 mps 758 mmHg 89%
11:00 +5°C° 0 mm 5 mps 758 mmHg 86%
12:00 +6°C° 0 mm 5 mps 758 mmHg 83%
13:00 +6°C° 0 mm 5 mps 758 mmHg 83%
14:00 +6°C° 0 mm 5 mps 758 mmHg 83%
15:00 +6°C° 0 mm 5 mps 758 mmHg 83%
16:00 +6°C° 0 mm 5 mps 758 mmHg 84%
17:00 +5°C° 0 mm 5 mps 759 mmHg 85%
18:00 +5°C° 0 mm 5 mps 759 mmHg 87%
19:00 +5°C° 0 mm 5 mps 759 mmHg 88%
20:00 +3°C° 0 mm 5 mps 759 mmHg 90%
21:00 +3°C° 0 mm 5 mps 759 mmHg 91%
22:00 +4°C° 0 mm 4 mps 759 mmHg 92%
23:00 +4°C° 0 mm 4 mps 759 mmHg 92%

23 April, Friday

Time Temperature Precipitation Wind Pressure Humidity
00:00 +3°C° 0 mm 4 mps 759 mmHg 93%
01:00 +3°C° 0 mm 4 mps 759 mmHg 93%
02:00 +3°C° 0 mm 4 mps 759 mmHg 93%
03:00 +3°C° 0 mm 4 mps 759 mmHg 93%
04:00 +4°C° 0 mm 3 mps 759 mmHg 91%
05:00 +4°C° 0 mm 3 mps 759 mmHg 90%
06:00 +4°C° 0 mm 3 mps 759 mmHg 89%
07:00 +4°C° 0 mm 3 mps 759 mmHg 87%
08:00 +4°C° 0 mm 3 mps 760 mmHg 86%
09:00 +5°C° 0 mm 3 mps 760 mmHg 84%
10:00 +5°C° 0 mm 3 mps 760 mmHg 81%
11:00 +7°C° 0 mm 3 mps 760 mmHg 77%
12:00 +8°C° 0 mm 2 mps 759 mmHg 74%
13:00 +8°C° 0 mm 3 mps 759 mmHg 75%
14:00 +8°C° 0 mm 3 mps 759 mmHg 77%
15:00 +6°C° 0 mm 4 mps 759 mmHg 79%
16:00 +7°C° 0 mm 3 mps 759 mmHg 81%
17:00 +7°C° 0 mm 3 mps 759 mmHg 83%
18:00 +7°C° 0 mm 2 mps 759 mmHg 85%
19:00 +6°C° 0 mm 2 mps 759 mmHg 87%
20:00 +6°C° 0 mm 2 mps 758 mmHg 89%
21:00 +5°C° 0 mm 2 mps 758 mmHg 91%
22:00 +5°C° 0 mm 2 mps 758 mmHg 92%
23:00 +5°C° 0 mm 2 mps 758 mmHg 93%
Show more